Theta_e
315 318 318 318 321 324 324 325 321 319 321 321 322 322 318 317 319 318 317 317 314 311 314 317 320 319 317 321 321 319 321 319 315 317 317 319 320 319 322 323 322 320 318 316 315 315 315 314 314 315 316 316 316 317 316 316 317 317 318 319 319 318 318 316 315 314 314 316 315 314 314 314 317 319 321 322 323 323 322 322 322 322 322 323 324 324
322 316 320 324 324 323 325 327 323 321 323 322 320 319 318 318 319 316 314 321 318 310 314 320 322 323 324 329 328 322 320 318 317 317 316 318 319 319 320 322 322 319 317 317 317 315 314 315 314 315 315 316 316 316 316 316 316 316 317 317 317 317 316 315 314 312 312 315 315 312 311 313 315 318 319 320 320 318 316 318 320 319 318 317 318 319
324 317 320 324 323 322 325 327 326 325 326 325 321 318 321 320 318 319 320 325 322 314 319 323 319 326 333 332 332 329 327 323 320 320 319 318 318 319 318 320 322 320 319 322 320 316 315 315 314 315 315 315 316 316 316 316 316 316 315 316 316 316 315 314 312 311 312 315 313 310 309 310 311 311 313 314 313 313 312 314 316 316 315 314 313 316
317 319 321 322 322 322 324 324 323 322 324 327 323 318 322 320 316 322 325 327 323 314 318 321 318 328 336 333 332 327 325 325 320 322 324 318 316 318 317 319 321 321 321 321 321 318 315 315 315 315 315 315 316 315 316 315 315 315 314 315 316 316 315 313 311 311 313 314 312 310 308 308 307 308 310 310 311 313 313 313 315 315 314 313 314 316
312 316 320 325 324 320 320 322 320 318 320 330 329 319 322 322 317 319 322 328 328 319 319 320 319 334 338 332 332 326 322 326 322 321 324 319 317 316 314 317 320 321 320 319 320 320 317 315 315 314 315 315 316 315 315 315 315 314 312 313 315 316 314 313 312 313 314 314 313 312 310 309 307 308 310 311 312 314 314 314 315 315 313 313 316 317
312 313 316 321 323 321 320 323 325 323 322 331 334 326 326 328 321 319 323 329 329 325 321 314 317 339 341 330 332 330 325 327 322 319 321 319 319 318 315 317 319 320 320 318 319 319 318 315 315 315 314 315 315 316 315 315 315 312 308 310 312 314 314 313 313 314 314 314 315 313 311 309 308 309 310 310 310 312 314 314 314 315 313 314 315 316
315 314 316 319 325 324 320 322 326 325 322 324 328 328 328 329 324 322 322 322 325 322 317 315 318 332 337 333 332 327 323 324 321 320 321 317 318 321 318 315 316 319 319 318 318 318 318 316 314 315 315 315 315 315 315 314 314 311 306 307 309 310 312 313 313 314 315 315 316 314 310 308 308 308 308 308 309 310 312 314 314 315 315 315 314 316
316 317 319 323 329 326 321 326 326 322 322 324 325 325 326 328 326 327 324 321 326 320 319 326 323 319 329 331 324 321 319 322 321 322 323 318 315 318 317 314 313 315 318 318 318 318 318 316 315 315 315 315 315 315 315 314 314 310 306 306 307 307 310 312 313 314 315 315 316 316 313 309 309 308 308 307 308 309 311 313 313 314 316 316 315 317
315 313 315 321 327 323 325 333 327 319 321 325 323 321 322 324 327 330 326 323 324 317 319 332 321 313 329 329 320 318 316 320 323 321 323 320 315 312 313 315 313 312 315 317 317 318 318 316 315 316 315 315 315 315 315 315 314 310 306 307 307 308 310 312 314 315 316 316 316 317 315 311 310 309 308 307 306 307 309 311 312 314 316 317 317 317
312 311 314 318 321 324 332 333 323 319 320 319 317 315 316 319 322 326 325 323 325 318 318 330 320 312 324 330 326 320 312 318 323 318 317 315 312 311 310 312 312 311 312 315 317 317 316 316 316 316 316 315 315 315 315 315 314 311 308 308 309 309 311 312 314 316 316 316 317 317 315 312 310 310 308 307 306 306 306 308 311 313 316 318 317 317
311 312 317 317 318 324 328 320 313 316 315 312 317 317 315 320 323 325 327 323 319 319 322 328 321 311 317 329 331 321 313 316 317 315 314 312 311 311 310 310 310 309 310 313 316 316 315 315 316 316 316 315 315 315 315 315 315 312 309 309 310 311 312 313 314 315 316 317 318 318 316 312 310 310 309 307 306 306 305 307 309 312 314 317 318 317
312 310 316 319 317 317 317 312 309 311 313 314 323 322 315 320 321 321 326 320 315 321 324 322 317 311 314 323 322 317 314 313 313 312 312 313 312 311 311 312 311 310 310 312 315 318 318 318 317 316 316 316 315 315 315 315 315 314 310 309 310 312 313 313 314 315 317 317 318 319 316 311 310 311 310 308 307 306 305 306 308 311 313 315 316 316
318 314 314 314 315 314 313 316 310 309 315 317 321 321 316 317 318 319 321 318 318 321 317 315 314 311 316 321 314 313 314 312 312 313 311 312 311 310 311 312 312 311 310 313 316 319 322 321 317 315 315 315 315 315 315 315 315 314 312 310 310 311 313 314 315 316 317 318 318 318 315 312 311 311 311 310 309 308 307 305 307 310 311 311 312 313
323 322 315 310 313 314 314 319 315 313 316 314 317 321 319 317 317 320 319 314 316 319 315 314 315 315 321 319 313 313 313 313 315 314 313 313 310 308 309 310 312 313 313 314 316 320 323 320 316 315 315 315 315 315 315 315 315 315 314 312 311 311 312 313 315 316 317 318 317 317 315 312 311 311 311 311 310 310 308 306 306 307 308 308 308 310
318 320 318 312 311 311 312 316 318 321 316 311 315 316 317 321 320 319 319 315 315 317 314 311 313 322 323 313 312 315 314 314 314 312 312 312 309 307 306 307 310 313 315 316 317 320 321 318 316 316 316 315 315 315 315 315 315 315 315 314 312 311 311 313 314 315 316 318 317 315 313 312 311 311 311 312 311 310 309 308 307 306 306 307 307 308
310 314 319 314 310 309 310 311 311 317 314 309 311 311 314 321 322 317 314 316 317 316 316 313 316 326 321 311 315 318 315 313 312 310 309 309 307 306 306 307 307 309 313 317 318 321 320 316 316 317 317 316 316 315 315 315 315 315 315 315 314 312 311 312 313 314 316 317 316 313 312 312 311 311 311 312 312 311 310 310 309 308 307 307 307 308
310 316 321 313 310 310 309 309 308 311 315 311 309 313 314 314 320 318 310 313 316 315 317 316 316 321 316 313 318 318 314 312 311 310 309 308 307 306 306 307 307 307 309 312 315 318 320 317 316 318 318 318 317 316 316 315 315 315 315 315 315 314 313 312 313 314 315 317 315 313 312 312 311 311 312 312 313 312 311 310 310 310 309 308 307 308
311 318 323 314 310 311 308 309 310 309 313 315 312 315 313 309 318 322 315 317 317 316 321 319 315 318 318 317 319 316 312 311 312 311 308 308 307 306 307 306 306 307 308 309 310 311 312 312 313 318 318 318 319 318 317 316 316 316 315 316 316 316 315 314 314 314 315 316 315 313 312 312 312 312 312 313 313 313 312 311 310 310 310 308 308 308
309 315 324 315 309 312 311 310 313 311 310 314 315 313 313 315 321 320 317 320 315 313 323 322 314 315 319 320 317 311 310 311 312 311 309 308 308 308 308 306 306 307 307 308 309 309 309 307 309 314 317 319 319 319 319 318 317 317 316 316 316 316 317 316 315 315 315 315 315 314 313 313 313 313 313 313 314 314 313 312 311 311 310 310 308 308
310 312 320 318 309 309 313 313 316 317 311 312 315 313 315 321 322 317 316 319 316 315 321 320 313 315 320 321 316 310 311 311 310 310 310 309 309 308 308 307 307 307 307 308 308 309 309 307 307 310 313 316 318 318 320 320 319 319 318 318 317 316 317 317 316 316 315 315 315 314 314 314 314 314 314 314 314 314 313 313 312 311 311 310 309 309
313 309 316 324 315 310 315 315 316 319 315 314 317 315 314 313 312 313 313 313 314 319 321 319 316 319 321 320 317 311 311 310 309 310 310 309 308 307 307 307 307 307 308 308 308 309 308 307 307 308 310 312 315 317 319 319 320 320 320 319 319 318 318 317 317 317 316 315 316 316 315 315 314 314 314 314 314 314 313 313 312 311 312 311 310 310
314 312 317 324 318 315 319 314 310 313 314 316 319 316 315 314 313 314 313 312 313 315 318 318 318 321 321 319 318 315 313 312 310 309 309 308 307 307 307 306 306 306 307 307 308 308 307 305 306 307 308 309 311 312 314 317 319 320 321 320 320 319 319 318 318 318 317 317 316 317 317 316 315 315 315 315 315 315 314 313 312 311 312 312 310 310
317 317 317 318 317 316 315 309 305 307 310 313 314 312 313 318 321 320 318 318 316 311 312 315 318 323 322 320 319 317 315 312 308 307 308 307 307 307 307 307 306 306 306 306 307 306 305 304 305 306 306 306 307 308 309 311 314 316 318 320 320 320 320 320 320 318 319 318 317 317 317 317 316 315 315 315 315 315 315 313 313 312 312 312 311 311
317 316 313 317 322 318 312 308 307 307 310 310 309 309 309 312 319 322 322 320 316 314 316 315 316 321 323 321 318 312 310 308 306 306 307 308 308 308 307 308 308 307 307 306 306 305 303 304 304 304 305 305 305 306 307 308 309 311 313 316 318 320 320 320 320 319 319 319 318 318 318 318 317 316 315 316 316 316 315 314 313 313 313 312 311 311
313 317 317 316 319 318 315 313 312 313 313 311 309 307 307 310 313 315 316 314 312 314 316 316 318 321 319 317 316 311 308 308 306 306 307 308 307 307 307 308 307 307 307 306 307 307 305 305 304 304 304 304 305 305 306 306 307 308 309 311 314 317 319 320 319 319 319 319 319 319 319 318 316 316 316 316 316 315 315 314 314 313 313 311 311 311
310 317 318 314 316 315 314 315 318 319 313 308 309 306 306 312 312 310 312 311 312 314 313 316 320 319 313 312 313 314 311 309 307 308 308 307 307 307 307 307 307 306 307 306 307 307 307 305 303 303 303 304 304 305 305 305 306 305 306 307 309 311 315 318 319 319 319 319 319 319 319 318 317 316 315 316 316 316 315 314 314 313 312 312 312 312
312 312 314 314 315 314 312 313 315 315 311 308 309 306 307 312 312 311 311 311 314 316 313 315 317 312 309 310 311 315 313 310 309 310 309 309 309 308 307 307 307 307 307 306 306 306 307 307 304 302 303 304 304 304 305 305 305 305 305 305 305 306 309 313 317 318 319 319 319 318 318 318 317 316 316 316 316 315 314 314 314 313 312 312 312 312
313 311 312 313 314 312 310 311 309 308 310 310 310 308 309 312 311 310 311 311 313 311 309 315 315 309 310 312 312 314 313 311 310 310 309 309 309 308 307 307 308 308 307 306 306 306 307 308 306 302 302 304 304 304 304 304 305 305 304 304 304 304 305 307 312 315 318 318 318 318 317 318 318 317 315 315 314 313 313 313 313 313 312 312 312 311
312 312 310 308 312 313 309 309 307 307 309 309 310 310 310 312 311 308 311 313 312 308 308 314 316 313 314 315 313 313 313 312 311 309 308 308 309 308 308 309 310 310 310 309 309 308 307 308 307 303 301 303 303 303 304 304 304 304 304 304 304 303 303 304 307 311 315 317 318 318 318 317 317 316 315 314 313 314 314 313 313 313 312 312 311 310
310 314 313 308 309 312 311 310 308 307 309 308 309 310 309 309 309 308 310 312 310 309 308 310 311 312 313 315 315 312 311 311 310 309 309 309 309 310 310 311 312 313 313 311 310 308 306 307 304 300 301 302 302 303 303 304 304 304 304 303 303 303 303 303 304 307 311 315 317 318 318 317 317 317 315 314 314 314 314 313 313 312 311 311 311 310
308 312 313 309 308 309 311 312 310 308 310 309 307 309 306 306 307 305 306 308 308 308 308 306 307 309 309 312 313 310 309 310 310 311 312 310 309 311 312 313 314 314 313 312 310 308 306 305 302 299 300 302 301 302 303 303 304 304 303 303 302 302 302 302 303 304 308 313 315 316 318 317 317 316 315 314 313 313 313 313 312 311 310 311 310 309
307 310 311 309 307 308 309 311 309 309 309 307 307 308 306 307 309 308 307 308 308 308 308 305 305 308 308 308 309 310 310 311 311 313 314 311 309 311 313 314 313 313 312 311 309 308 307 306 303 299 299 301 301 302 302 302 303 303 303 303 302 302 302 302 303 303 306 311 314 315 317 317 317 315 314 313 313 312 312 311 311 310 310 310 309 309
308 308 310 310 307 305 308 310 309 309 309 308 309 310 308 308 309 308 308 308 308 307 307 306 306 308 308 307 309 310 310 311 314 314 314 311 310 310 312 312 312 312 311 310 309 309 307 304 301 299 300 301 301 302 302 302 303 303 303 302 302 302 302 302 303 303 305 309 312 315 316 317 316 315 314 314 313 312 311 310 310 310 310 310 309 309
309 307 307 309 306 305 307 308 308 308 307 306 308 309 308 307 307 307 307 307 307 307 308 309 308 307 306 307 310 312 312 313 313 312 309 307 307 310 311 312 312 312 310 309 309 307 302 299 299 300 301 302 302 302 302 302 302 302 302 302 301 301 301 302 303 303 305 307 311 314 315 316 316 314 313 313 312 310 309 308 308 309 309 309 308 307
308 307 307 307 306 305 305 305 307 308 306 304 305 305 306 306 305 305 306 307 307 307 308 309 308 305 305 308 309 311 313 312 310 309 309 305 305 308 310 311 312 312 310 309 309 305 299 297 299 301 301 302 302 302 302 302 302 302 301 301 301 301 301 302 303 303 305 307 310 313 315 315 315 313 312 311 310 309 307 307 307 308 308 308 308 307
305 306 306 305 305 305 305 306 308 307 304 305 307 306 307 308 307 304 304 306 305 305 308 310 309 307 307 310 310 309 309 307 306 307 308 305 304 305 308 309 310 311 309 306 304 302 299 299 301 301 301 302 302 302 302 302 302 301 301 301 301 301 301 302 303 304 305 307 309 312 314 315 314 313 311 310 310 308 307 308 309 309 309 308 307 306
304 306 305 304 304 305 306 308 308 305 304 307 308 305 305 307 307 304 304 305 304 304 307 308 309 309 309 311 311 306 303 304 306 308 307 306 306 305 304 305 305 305 303 300 300 301 301 301 302 301 302 302 301 302 302 301 301 301 300 300 300 300 301 302 303 304 305 306 308 310 313 314 313 312 311 310 309 307 307 309 309 309 308 308 306 305
303 304 305 305 304 304 305 306 306 306 307 308 306 304 303 304 304 302 303 305 305 304 305 306 308 310 310 310 309 304 302 303 305 308 308 308 308 307 304 301 299 298 299 299 300 301 301 302 302 302 302 301 301 301 301 300 300 300 299 300 300 300 301 301 302 304 304 306 308 310 312 313 313 312 311 309 308 307 307 308 309 309 308 307 306 305
304 304 304 304 305 305 304 305 306 307 307 306 305 305 305 303 301 302 304 306 304 303 304 305 306 308 309 309 307 304 303 304 304 305 305 305 306 306 305 302 298 297 299 300 301 301 301 301 301 301 301 301 301 301 300 300 300 299 299 299 300 300 301 301 302 303 304 305 306 308 311 313 313 312 311 309 308 307 307 308 309 308 307 307 306 305
307 307 305 303 305 306 305 306 306 305 305 305 305 307 306 302 300 303 307 307 303 302 304 304 305 307 307 306 305 305 306 306 304 303 304 303 301 300 301 301 299 298 300 300 301 300 301 301 300 300 300 300 300 300 300 300 299 299 299 299 300 300 300 301 302 303 303 305 306 308 310 312 312 312 310 309 307 307 308 308 308 307 307 307 306 305
305 305 303 302 305 306 305 306 306 304 305 304 305 306 305 302 302 305 308 305 303 303 304 304 304 306 306 305 305 306 306 305 303 302 304 303 301 299 298 299 299 299 299 300 300 300 300 300 300 300 300 300 300 300 300 299 299 299 299 300 300 300 300 301 302 302 303 304 306 308 310 311 311 311 310 309 307 307 306 306 306 305 305 306 305 304
303 302 301 302 302 303 304 305 304 303 303 304 304 305 303 302 304 306 305 303 302 303 303 304 304 304 305 305 305 305 304 303 302 302 302 302 302 301 298 297 298 298 298 299 299 299 299 299 299 299 299 300 300 299 299 299 299 299 300 300 300 300 301 301 302 302 304 305 306 308 310 310 311 310 309 308 307 306 305 303 303 303 303 304 304 303
300 300 301 302 301 300 301 302 302 302 302 302 303 302 301 302 303 302 301 302 304 304 304 305 306 305 305 305 305 304 303 302 301 301 300 301 301 300 298 297 297 297 298 298 298 298 299 299 298 299 299 299 299 299 299 299 299 299 300 300 301 301 301 302 302 303 305 306 307 309 309 309 309 307 306 304 304 303 302 302 303 304 304 304 304 302
299 299 300 302 301 300 301 303 304 304 302 302 302 301 301 301 301 299 299 302 305 305 306 305 306 306 305 304 304 303 302 302 302 301 300 300 300 300 298 297 297 297 298 298 298 299 299 298 298 298 298 299 299 299 299 299 299 300 300 301 301 301 301 302 303 304 305 306 307 309 309 308 307 305 304 302 302 302 304 304 305 305 304 303 302 301
298 299 300 300 300 299 300 302 302 301 302 303 303 302 300 299 298 298 300 302 303 304 304 304 303 304 304 303 303 303 302 302 301 301 300 300 299 299 298 297 297 298 298 298 299 299 298 298 298 298 298 299 299 299 300 300 300 301 301 302 302 302 302 303 303 304 306 307 308 308 307 305 304 304 303 303 303 304 304 304 303 303 302 301 299 299
299 299 298 299 299 299 299 299 297 298 300 302 301 300 298 297 298 300 301 302 304 304 303 303 302 302 303 302 302 302 301 301 301 300 299 299 299 298 298 297 297 297 298 298 298 299 299 298 298 298 298 299 300 300 300 301 302 302 303 303 303 304 304 303 304 305 306 307 307 306 305 304 303 302 303 303 302 302 301 301 300 299 299 300 299 299
300 298 297 298 299 299 299 299 298 297 299 298 297 297 297 296 298 301 303 303 303 302 302 302 302 302 301 301 301 300 300 299 299 299 298 298 298 298 298 297 297 297 298 298 298 298 299 298 298 299 299 299 300 300 301 302 304 304 304 305 304 304 304 304 305 305 306 306 305 304 303 303 302 302 302 301 298 298 299 298 298 298 298 299 299 298
298 296 297 298 298 297 297 298 297 296 297 296 296 296 296 296 298 300 302 301 301 301 301 300 300 300 300 299 299 299 298 298 298 298 298 298 298 298 297 296 297 297 298 298 298 299 298 298 299 299 299 300 300 301 302 304 305 305 305 305 305 304 304 304 305 306 305 304 303 302 302 302 302 302 301 298 296 297 298 298 298 298 298 298 297 296
297 297 297 298 297 296 297 297 296 296 296 297 297 297 297 298 298 299 299 299 300 301 300 298 297 297 297 297 298 298 298 298 298 298 298 298 298 297 297 296 297 297 298 298 299 299 299 299 299 299 300 301 302 303 304 304 304 304 305 304 305 305 305 305 305 305 304 302 301 301 300 301 301 301 299 298 297 298 298 298 298 297 296 295 295 294
297 297 297 297 297 296 296 296 296 296 295 296 297 297 297 298 298 297 297 298 298 298 299 298 296 295 295 295 296 297 298 298 298 298 297 297 297 297 296 296 297 297 298 299 299 300 300 300 300 301 301 302 303 304 304 304 304 304 303 303 304 304 305 305 304 303 302 301 300 299 299 300 300 299 298 298 298 298 297 297 296 295 295 294 294 294
297 297 296 297 297 296 296 295 295 295 295 295 295 295 296 296 297 297 296 296 297 297 297 297 297 296 296 295 294 296 298 297 296 296 297 297 296 296 296 297 297 297 298 299 300 300 301 301 301 302 302 303 304 304 304 304 303 302 302 302 303 304 305 304 303 301 301 300 299 299 299 298 298 298 298 298 298 297 297 296 296 295 294 294 294 294
Wind_Speed
4 3 1 3 5 6 6 5 5 4 5 6 5 4 4 2 2 5 4 5 2 3 1 1 4 6 6 7 6 4 3 2 6 5 5 6 5 6 6 7 8 8 7 5 9 16 21 23 23 23 24 25 25 27 28 27 26 25 25 25 24 23 21 19 19 18 16 15 13 11 10 9 9 8 7 6 4 3 2 2 2 1 2 3 3 3
5 2 4 8 9 7 5 4 5 4 5 5 5 5 1 2 2 4 3 4 4 1 3 2 3 6 7 7 5 3 2 3 7 8 7 8 7 6 7 8 8 6 3 4 8 13 19 20 20 21 22 24 26 28 29 28 27 26 25 25 25 24 22 19 19 18 17 16 14 13 11 10 10 8 7 6 4 2 1 2 1 2 3 3 3 3
5 2 8 8 6 4 4 5 6 5 4 4 3 3 0 2 3 5 3 5 4 1 3 3 4 6 7 7 7 3 4 5 6 7 8 9 9 8 9 9 7 7 5 6 7 11 18 20 20 21 22 25 26 29 30 29 28 27 26 26 26 25 23 20 19 18 18 16 14 12 11 11 10 9 8 6 5 4 4 3 2 2 4 5 4 4
2 5 7 3 6 6 4 3 6 4 2 3 3 3 2 2 1 3 4 6 4 2 1 2 3 6 6 6 6 5 3 3 4 6 6 6 9 10 10 9 9 10 8 8 8 9 14 17 20 22 23 24 25 27 30 29 29 29 28 28 27 26 24 22 21 20 19 18 15 12 12 11 10 10 9 7 6 4 4 4 3 2 4 4 4 4
5 7 4 5 5 5 3 2 5 5 1 2 2 4 2 2 3 4 4 5 4 4 3 4 4 5 5 5 6 5 4 3 1 2 4 4 6 6 5 7 10 11 11 11 10 9 11 16 21 23 23 25 26 28 31 32 31 29 28 28 28 27 25 23 22 22 21 20 16 14 13 11 11 11 10 8 6 5 4 3 2 2 3 3 4 5
6 5 3 5 2 3 5 2 3 7 2 4 3 6 6 5 4 3 2 5 5 4 4 4 2 5 5 4 6 4 6 6 4 3 3 5 5 5 5 7 9 10 10 11 12 12 13 17 19 20 22 25 28 30 32 32 31 29 28 28 28 28 27 25 24 24 22 21 18 17 16 14 13 13 11 8 7 6 6 5 4 3 3 3 3 3
4 3 3 4 3 4 3 3 5 7 5 2 4 6 6 6 5 3 2 3 2 3 3 3 2 4 6 5 6 4 6 8 7 6 6 5 5 6 7 7 8 9 10 10 11 11 13 15 17 19 25 29 30 31 30 30 30 30 29 29 29 29 28 28 27 25 23 21 20 19 20 18 16 15 12 9 8 7 7 6 5 5 5 4 3 3
3 2 5 4 5 5 2 3 5 7 7 2 5 7 8 6 5 5 5 4 1 3 3 5 3 2 4 5 5 5 6 8 8 8 9 6 4 6 7 7 8 10 11 11 11 11 12 15 19 23 29 32 31 29 29 31 31 32 31 30 30 30 29 30 29 27 24 23 21 20 21 19 16 14 12 11 9 8 7 6 6 6 5 5 5 4
2 2 3 2 5 3 3 5 7 9 5 5 5 7 6 6 5 5 6 3 1 1 3 5 2 1 4 6 5 5 3 6 8 8 9 8 7 4 6 8 9 11 11 11 12 12 12 17 25 30 31 30 28 28 30 32 33 33 32 31 32 31 31 31 31 29 26 24 22 21 22 21 17 14 12 12 10 8 7 7 7 7 6 6 5 4
3 5 4 4 4 3 6 4 7 9 3 4 6 7 5 6 5 5 5 3 3 3 3 6 1 1 4 6 5 4 3 5 7 7 7 7 9 9 8 9 9 10 9 10 12 12 15 23 29 28 25 23 24 26 28 30 32 32 31 31 32 32 32 32 32 30 27 25 24 22 23 23 19 15 14 13 11 9 7 7 8 8 8 7 6 5
4 3 2 3 3 5 4 2 3 4 3 3 6 6 6 6 5 4 3 4 4 2 6 7 2 2 2 5 3 1 1 3 6 7 7 7 8 9 9 8 9 8 8 10 11 10 13 18 20 20 19 20 22 23 26 29 31 32 31 32 33 33 34 34 33 31 29 27 26 24 24 25 21 18 17 16 14 12 10 9 9 9 9 8 7 5
6 3 2 3 3 4 5 4 2 3 4 4 4 5 4 3 4 4 4 3 3 3 6 4 1 4 1 4 3 4 5 4 4 6 8 9 9 9 7 6 7 7 7 8 8 7 7 10 14 18 19 20 22 24 26 29 32 32 31 32 33 34 34 35 34 32 30 29 27 26 26 26 23 20 20 19 17 15 13 12 11 10 10 9 7 6
5 4 4 5 3 3 6 3 3 5 5 5 4 5 3 2 3 2 3 1 2 5 3 2 1 1 4 5 4 7 7 6 4 5 7 8 9 9 6 5 5 4 4 5 6 6 7 7 9 15 20 22 25 26 27 29 32 34 33 33 34 36 36 36 35 33 31 30 29 28 28 28 25 22 21 20 18 16 15 14 13 12 11 10 9 8
4 5 5 3 3 1 6 4 1 1 1 4 4 4 3 2 2 1 3 1 2 4 3 2 1 1 3 3 3 6 7 6 6 6 6 7 9 8 6 6 6 5 3 1 4 6 7 6 6 11 17 21 24 26 28 30 32 34 34 33 34 35 36 36 35 34 32 31 30 29 29 29 26 23 22 21 19 17 16 16 15 13 12 10 9 9
0 5 4 2 2 1 3 5 5 5 3 3 4 5 4 4 4 3 3 3 3 2 2 2 1 2 2 2 4 5 6 5 5 6 6 6 8 6 7 9 8 7 6 3 1 3 4 6 8 9 12 15 18 21 25 28 31 34 35 35 35 35 36 37 36 35 34 32 31 30 30 30 27 25 23 22 20 18 17 17 16 14 12 10 9 9
1 5 6 4 2 0 1 2 5 6 2 1 3 5 2 4 5 2 3 4 3 1 0 2 2 3 2 3 5 4 5 6 5 5 5 6 7 7 10 10 9 8 6 6 4 2 2 5 8 9 11 12 13 16 21 23 26 29 31 32 35 35 36 37 37 37 35 33 32 32 32 31 28 26 25 24 23 21 18 17 17 16 14 11 10 11
0 4 6 4 3 1 1 1 3 3 2 1 2 3 4 4 7 4 1 1 3 2 2 1 2 3 2 1 4 5 5 6 5 6 7 7 8 10 10 9 9 9 8 7 6 4 2 2 7 10 11 12 12 14 17 19 20 22 22 23 26 28 31 36 38 37 36 34 34 34 34 32 30 29 27 26 25 23 21 19 18 17 15 14 13 12
2 4 6 1 0 3 2 2 3 2 4 4 3 5 3 3 5 4 2 3 4 2 4 1 2 2 0 1 3 5 5 6 7 7 7 7 8 9 8 8 8 8 8 9 9 8 6 4 2 8 12 13 13 13 14 16 17 18 18 19 21 23 26 29 32 34 35 35 35 35 35 34 33 31 30 28 26 24 22 22 21 19 18 16 15 14
2 2 7 2 1 5 5 4 3 5 3 4 4 3 3 3 1 1 2 1 1 2 3 3 2 2 3 4 2 1 1 5 7 6 7 8 8 7 7 8 8 8 8 9 9 9 8 10 9 3 7 11 12 12 13 15 17 18 18 19 20 23 24 23 24 28 32 34 34 34 35 35 35 33 31 29 28 26 25 24 23 22 20 18 16 15
1 1 5 4 1 4 5 3 1 3 3 3 3 3 2 3 3 2 2 3 3 2 2 3 3 2 4 5 4 5 3 3 5 6 7 7 7 6 5 6 7 7 7 7 7 8 7 11 17 16 8 3 8 10 12 14 17 19 20 21 21 22 22 23 24 27 29 29 30 30 30 32 33 33 33 32 30 28 27 25 25 23 22 20 18 16
2 2 3 5 4 1 1 1 3 4 1 1 2 1 1 2 2 1 1 2 3 3 3 1 2 4 5 4 5 5 4 2 2 5 6 6 7 7 6 6 6 6 6 6 6 6 7 10 17 21 20 15 9 3 7 11 14 17 20 22 22 22 23 25 27 28 28 27 30 33 33 31 32 33 33 33 32 30 28 27 26 25 23 22 20 17
1 2 2 3 4 1 4 4 2 4 4 3 2 3 3 3 3 1 1 1 1 3 4 4 2 6 4 3 4 4 3 1 2 3 4 5 6 6 6 6 6 5 5 6 6 5 6 9 13 17 21 23 22 17 10 3 5 10 15 18 20 22 23 26 28 28 28 29 32 35 35 32 32 33 34 34 33 32 31 29 27 26 24 23 22 19
1 3 1 3 4 4 6 3 1 2 2 4 2 1 3 3 4 4 3 3 1 1 2 4 2 5 5 3 3 4 3 2 3 3 3 4 4 5 6 5 5 5 4 5 5 5 7 10 13 16 18 20 21 22 21 19 13 6 3 10 16 20 22 25 28 28 28 30 32 33 33 33 33 33 34 35 34 33 32 31 29 26 25 24 23 21
1 2 1 3 4 4 5 3 3 3 4 4 1 2 3 2 3 5 4 3 3 3 2 2 2 5 5 3 2 4 3 1 3 3 3 4 4 4 5 5 5 5 5 5 6 6 8 13 16 16 17 19 20 21 22 22 22 20 14 6 6 14 20 23 25 26 27 29 31 33 36 38 37 35 36 36 37 36 34 33 30 27 26 25 24 22
1 0 1 2 4 5 6 5 4 5 3 2 1 2 1 3 5 3 2 3 1 3 4 4 4 5 4 3 4 4 2 3 5 3 3 3 3 4 4 5 5 6 6 7 7 7 9 11 12 14 17 19 21 23 23 23 23 23 22 19 13 7 12 17 20 23 25 28 31 33 37 40 37 36 37 39 38 37 36 35 32 29 27 26 25 23
2 1 2 2 2 3 3 3 3 2 0 0 1 3 0 4 5 2 1 3 1 3 3 4 4 4 4 5 5 5 3 2 3 3 4 3 1 4 4 4 4 5 6 7 8 8 7 7 9 12 16 18 19 21 22 23 24 24 23 22 21 17 11 9 15 20 24 26 30 33 37 39 37 36 38 39 40 39 38 36 33 30 28 27 26 25
2 0 2 5 6 6 6 6 4 2 1 2 2 3 2 2 4 4 4 3 4 3 2 5 4 2 4 6 6 5 3 3 3 1 1 1 1 3 4 4 4 4 5 5 6 6 6 6 8 10 13 15 17 19 19 19 21 22 22 21 21 20 18 13 9 15 22 26 28 31 35 38 39 38 38 39 39 38 36 35 33 31 30 29 28 27
4 2 2 4 5 6 6 6 3 1 2 5 5 5 6 2 4 5 4 4 4 3 4 7 6 4 6 7 7 6 5 4 4 3 2 2 2 1 2 4 5 5 5 5 5 5 6 6 6 8 11 14 16 18 19 19 19 20 20 21 21 20 19 18 14 11 17 24 27 29 32 34 37 37 37 35 33 31 31 31 32 31 30 30 30 29
4 2 3 2 4 5 4 5 2 0 3 4 4 7 8 6 7 8 8 6 7 6 8 7 8 7 7 6 7 8 6 5 5 5 3 2 2 1 2 3 4 5 5 6 6 5 6 5 5 7 11 14 15 17 19 20 21 22 22 22 22 22 21 21 19 16 14 19 25 29 30 31 33 34 34 33 31 31 32 32 32 31 31 31 31 29
3 2 3 3 3 6 5 5 3 3 3 4 5 7 6 6 8 9 8 6 7 8 8 5 8 9 7 7 8 7 5 5 4 4 3 3 2 2 2 3 4 5 5 5 6 5 5 5 6 8 12 13 14 16 17 18 20 21 23 24 25 25 24 23 22 20 18 17 22 27 28 29 30 32 33 33 33 35 36 36 35 34 34 33 31 28
1 2 2 1 3 6 5 4 4 5 5 5 8 6 3 4 6 5 4 3 4 7 8 5 6 8 7 6 6 3 1 1 2 4 4 3 3 2 2 3 4 5 5 6 6 6 6 6 6 8 10 12 14 15 16 17 18 19 21 23 24 25 26 25 23 22 20 19 20 23 25 27 28 30 31 32 32 35 37 36 35 34 33 32 29 26
1 1 1 1 3 5 3 4 7 5 4 8 8 6 5 6 6 5 5 5 6 6 6 4 5 7 6 5 4 3 1 1 3 5 4 4 4 4 4 4 4 5 5 6 6 6 7 6 6 8 11 13 15 15 16 17 18 20 21 22 23 25 26 26 25 23 22 20 20 20 23 25 26 28 29 31 33 34 35 35 34 32 31 31 29 27
2 2 0 2 3 3 3 6 7 4 5 9 7 8 11 11 9 7 5 6 7 6 5 6 7 6 5 6 7 6 4 4 5 5 4 4 4 5 5 5 5 5 5 5 6 6 7 7 9 11 14 17 17 18 18 18 18 20 22 22 23 24 25 26 26 25 23 21 20 20 22 24 25 27 29 31 33 34 34 35 36 36 34 32 30 28
1 2 2 3 2 2 2 2 1 1 5 7 5 6 10 11 11 11 9 8 8 5 3 3 4 3 5 7 8 7 6 4 4 4 4 4 4 5 6 6 5 5 5 5 6 6 7 9 12 15 17 18 19 19 19 19 20 22 22 23 23 23 23 24 25 25 23 21 20 20 20 23 25 26 28 29 30 30 31 31 32 33 33 31 30 28
2 2 2 1 2 2 0 4 2 4 6 4 3 3 2 2 6 10 9 5 2 1 1 3 3 0 3 2 3 4 4 3 4 6 6 4 4 5 6 6 6 5 5 6 6 6 8 11 13 16 19 21 21 21 21 22 23 23 24 24 24 23 23 23 23 23 23 21 19 19 20 22 23 24 25 27 27 27 27 28 29 30 30 28 27 25
4 3 2 1 1 1 1 3 4 5 5 4 5 5 3 4 3 1 4 5 4 1 1 1 1 2 1 2 3 1 1 4 5 6 8 6 5 6 6 7 7 5 5 6 7 8 12 14 16 18 21 22 23 23 24 25 26 26 26 25 24 24 22 22 21 21 22 21 19 19 20 21 22 23 25 26 28 28 29 31 32 31 29 28 27 25
5 3 2 1 1 2 2 3 3 4 7 5 4 4 2 1 2 2 3 4 4 2 2 3 2 2 2 3 4 2 3 4 5 6 7 6 6 7 8 9 8 7 7 9 12 15 18 19 20 21 22 22 23 24 26 28 28 27 27 27 26 25 23 21 20 20 20 21 20 20 21 22 22 23 25 26 28 29 32 36 36 33 30 29 28 26
4 2 3 3 1 1 1 3 3 3 5 5 3 4 2 2 3 3 2 1 4 3 0 1 1 3 3 4 4 2 3 3 2 6 7 6 5 6 8 10 11 11 12 14 17 19 20 21 21 21 21 21 23 25 27 28 28 28 27 26 27 27 24 21 20 21 20 21 21 21 21 22 23 24 25 26 28 30 33 36 35 33 30 29 27 24
3 2 3 3 1 1 2 2 3 3 4 5 5 6 4 3 4 2 2 1 4 4 2 1 3 5 5 4 2 3 3 1 3 5 6 6 5 5 6 8 11 14 17 18 19 20 21 22 22 21 21 21 23 26 28 28 28 26 25 25 26 26 24 22 21 22 21 21 21 21 21 23 24 25 25 27 30 33 34 34 33 31 28 25 23 21
4 3 3 1 3 1 3 3 3 2 3 3 3 6 4 3 5 3 1 3 5 5 2 3 4 6 5 4 2 4 4 5 5 5 6 5 5 6 7 8 11 14 17 19 20 20 21 22 21 21 21 22 25 27 28 28 28 25 24 25 25 24 24 23 23 23 22 21 21 21 22 23 25 26 26 28 31 34 34 31 28 26 23 21 19 16
3 2 1 0 2 2 2 3 3 3 3 3 4 6 4 1 4 3 3 4 3 4 3 3 4 6 5 4 3 3 5 7 5 6 7 6 6 7 10 13 15 15 17 19 20 20 20 21 21 22 23 25 26 27 28 28 27 25 25 24 24 25 26 25 25 24 23 21 21 21 22 24 26 27 28 31 34 35 32 28 25 22 19 18 17 13
1 2 2 1 0 1 2 2 3 3 2 2 3 4 3 2 2 4 4 3 4 4 4 3 4 5 4 4 5 5 7 7 6 7 8 8 8 9 10 12 13 14 16 18 18 19 20 21 22 23 25 26 26 26 27 26 26 26 25 24 25 28 28 26 25 24 23 21 20 20 22 25 26 27 29 34 38 37 32 28 26 24 20 19 18 16
1 1 3 2 2 1 1 1 1 3 3 2 1 2 2 2 3 4 3 3 4 4 4 4 4 4 4 5 6 6 7 8 8 8 8 8 9 9 10 11 12 14 17 18 19 20 19 20 22 24 25 26 25 25 25 25 26 26 25 25 28 29 28 26 25 23 22 20 19 20 22 24 25 28 30 31 32 33 32 29 28 26 23 22 22 20
2 2 2 2 1 0 1 3 3 4 4 3 1 1 2 3 4 4 4 3 3 3 3 4 5 5 5 5 6 7 7 8 9 9 9 9 10 9 10 11 12 16 19 21 22 22 20 20 23 24 26 25 24 25 25 24 26 26 25 27 29 28 27 26 24 22 20 19 19 20 22 24 27 31 31 26 23 25 28 27 27 26 24 22 19 17
3 3 2 2 2 2 4 5 5 5 4 3 2 3 4 6 7 5 5 5 4 3 3 3 5 6 5 5 6 7 6 8 9 10 10 11 10 10 11 13 15 18 21 23 25 24 22 22 24 25 26 25 25 25 26 26 26 26 27 29 29 27 26 25 23 22 19 18 19 21 22 24 26 29 31 29 26 26 27 25 23 23 21 18 16 14
3 1 2 2 2 3 4 5 5 5 6 4 3 4 5 6 7 5 5 5 5 4 4 3 5 6 7 7 7 7 8 9 10 11 11 11 11 11 12 15 18 21 22 23 26 26 24 23 24 24 25 27 27 26 26 26 25 25 27 29 27 26 25 23 22 20 18 18 21 24 26 27 28 28 28 27 27 27 26 23 19 17 15 14 13 11
3 0 2 2 3 3 4 4 3 4 6 6 5 7 7 7 6 4 4 5 5 5 5 5 6 7 7 7 7 9 10 10 10 11 11 10 11 11 11 12 17 21 23 24 26 27 24 22 22 23 24 26 28 27 25 25 24 25 27 27 26 26 25 22 20 18 17 21 24 29 33 35 33 30 28 25 24 23 23 22 19 16 15 14 13 11
2 1 0 2 4 3 4 7 7 8 9 8 6 6 6 7 7 5 4 5 5 5 6 6 7 7 7 8 8 9 10 11 10 11 10 9 10 10 10 12 17 20 23 25 26 26 24 22 22 23 24 26 27 26 25 25 25 25 25 26 26 26 24 21 20 18 22 27 30 33 36 37 35 32 29 26 24 24 23 21 19 17 14 13 12 11
1 2 2 2 3 4 6 8 8 8 8 8 7 5 5 6 7 8 7 7 7 7 8 9 9 8 8 9 9 8 10 11 11 11 11 11 10 10 12 15 19 21 23 25 26 25 23 23 24 24 24 26 27 26 25 25 24 23 23 24 24 23 23 22 20 22 29 32 32 34 34 33 31 29 27 24 23 22 20 18 17 15 15 14 12 11
1 3 4 2 3 5 6 7 7 5 6 8 8 7 6 6 6 8 8 8 8 9 9 10 11 11 10 11 10 8 9 12 12 11 11 10 11 13 16 19 20 21 23 24 25 23 23 24 25 24 25 25 25 24 24 22 19 17 17 19 19 20 22 23 23 27 31 32 32 34 33 30 29 28 28 26 23 21 19 17 16 15 15 14 12 9
3 5 4 3 5 6 7 9 8 5 6 9 9 8 7 5 6 8 9 10 10 10 9 9 10 11 10 11 12 11 10 12 13 12 11 11 15 18 20 21 21 21 22 23 22 21 22 23 24 23 24 23 22 22 20 13 7 6 9 12 15 18 23 27 28 29 29 30 31 32 31 29 28 29 29 27 25 24 22 20 17 15 14 13 10 7
Wind_Direction
67 60 340 213 228 240 229 199 178 177 135 129 119 119 152 160 288 278 265 292 335 97 341 238 244 277 276 265 250 256 339 298 251 223 187 193 191 198 201 205 211 215 223 207 195 193 193 195 192 189 187 184 182 180 182 184 184 183 179 174 170 169 170 169 167 163 162 162 162 163 163 154 143 144 151 153 153 135 117 92 63 29 359 348 359 11
53 59 249 224 220 221 203 175 140 112 87 95 125 125 143 189 248 268 249 311 344 116 267 329 344 289 267 271 259 187 177 239 229 215 207 204 199 200 203 209 211 214 215 181 184 189 192 198 196 192 189 187 184 182 185 187 185 184 182 179 173 170 173 175 174 171 169 171 169 166 163 156 150 151 157 160 155 133 106 97 66 35 10 357 3 14
19 284 254 240 203 145 103 120 114 103 92 81 120 128 280 257 275 291 297 332 357 76 276 343 2 289 277 284 281 243 199 218 223 213 205 199 195 199 201 203 205 207 201 187 185 187 193 198 196 195 194 191 189 186 187 189 187 186 185 183 178 174 175 177 177 174 170 172 172 166 158 154 150 148 152 151 135 105 89 94 79 41 17 3 8 35
335 254 244 213 148 127 79 89 104 99 88 89 117 137 259 284 332 291 302 327 349 53 290 23 10 295 299 312 295 284 246 229 238 238 235 207 197 202 202 195 193 198 199 197 195 189 190 195 198 199 197 193 192 190 190 189 189 188 188 186 182 178 177 177 177 173 171 172 171 165 157 153 147 143 144 140 128 111 97 96 84 48 21 16 34 64
251 242 183 118 131 144 119 93 115 134 264 306 162 157 186 235 201 217 279 328 349 13 33 47 9 312 325 337 301 301 320 315 290 267 273 252 231 226 211 200 199 197 196 196 195 187 185 195 200 199 197 195 195 196 193 191 191 189 189 189 186 181 178 178 177 175 175 173 171 168 163 159 149 145 152 155 152 147 133 121 98 56 44 64 85 83
261 260 146 119 109 125 137 183 178 157 177 309 246 197 183 178 188 213 331 22 28 348 346 30 352 292 322 324 279 304 345 325 333 340 253 232 243 246 220 210 209 206 203 199 194 190 190 195 195 196 198 198 200 201 196 193 192 189 189 191 188 184 180 181 181 179 180 179 178 176 173 170 163 160 167 167 159 156 149 136 118 91 85 104 110 90
260 311 67 118 123 101 131 239 233 163 129 305 248 193 156 131 132 146 108 78 78 271 309 42 158 258 319 318 281 323 345 314 314 312 277 237 217 226 230 221 209 208 209 207 201 193 190 189 186 193 201 202 203 203 197 194 192 190 191 191 189 185 181 183 185 185 187 187 188 189 185 182 179 175 170 161 154 152 148 140 133 115 99 113 122 96
229 325 29 74 93 91 128 246 233 153 121 236 226 143 127 127 148 157 135 127 196 249 322 15 110 202 304 280 282 342 347 317 315 303 296 289 235 219 236 240 225 217 211 205 203 194 189 188 188 196 203 204 204 201 196 194 192 191 192 191 189 186 182 185 189 190 192 192 196 200 197 194 191 183 168 158 159 157 153 146 146 139 119 118 123 110
226 267 308 78 80 94 200 215 194 153 143 241 190 127 128 137 146 139 120 121 19 14 311 323 36 137 279 274 304 357 347 310 307 293 295 306 305 280 251 241 232 227 219 210 204 195 189 191 196 201 203 203 201 198 197 195 191 192 193 191 190 186 184 187 191 194 196 198 203 208 206 203 199 189 172 164 165 163 161 157 154 154 146 139 133 122
244 236 230 135 109 217 228 212 177 160 186 218 136 98 73 74 77 82 100 110 47 46 250 272 300 161 270 285 309 357 359 296 289 289 290 300 310 304 282 263 242 228 219 212 208 200 195 197 200 201 199 197 198 197 197 195 192 194 195 193 191 188 187 189 193 197 200 202 208 213 211 208 205 195 180 172 172 172 171 167 164 163 159 156 150 138
289 278 196 147 179 201 179 138 157 141 126 127 100 68 52 42 38 48 59 85 68 353 254 253 229 128 272 283 276 293 327 281 282 300 307 309 310 294 281 277 259 237 215 208 208 203 198 198 197 195 192 191 192 193 195 195 194 195 196 195 194 192 191 192 195 200 204 206 210 215 214 211 208 200 189 182 178 179 182 180 173 169 164 162 158 151
334 333 233 256 232 153 104 70 43 55 80 95 76 71 70 4 15 31 357 46 91 264 266 269 94 105 234 270 283 288 289 290 281 289 303 311 310 294 284 289 275 248 219 205 197 184 178 181 181 184 187 185 185 189 193 195 195 196 198 198 197 196 195 196 199 202 207 210 212 216 216 213 211 205 198 193 187 184 185 185 180 174 169 165 163 159
321 257 265 305 287 141 108 72 15 15 43 77 81 81 86 343 13 12 303 339 196 243 274 321 60 122 242 243 277 303 310 322 313 288 297 304 303 305 322 333 314 281 238 207 180 163 165 173 179 182 183 182 185 190 192 193 195 197 200 200 199 199 199 199 202 205 208 212 215 216 215 214 212 210 207 204 199 193 190 187 185 182 177 173 171 168
317 301 323 327 293 151 127 139 190 303 77 128 142 127 125 109 68 296 266 278 262 264 303 319 310 283 274 266 297 309 310 320 330 318 307 299 294 311 1 18 7 357 330 222 171 165 165 168 184 191 188 186 189 191 191 193 195 198 201 202 202 202 202 202 205 208 210 214 216 215 214 214 214 214 214 213 210 203 197 193 192 190 187 184 177 169
278 306 294 196 270 320 164 179 167 150 143 171 160 134 144 158 152 220 222 194 238 262 321 309 243 191 210 294 305 300 303 317 337 320 308 307 297 321 31 36 27 19 9 11 93 146 151 155 170 188 194 194 196 194 194 195 196 199 202 203 204 204 204 205 207 209 212 215 215 213 212 215 217 219 219 219 218 212 205 201 198 195 193 192 184 173
156 259 262 259 281 270 213 205 135 115 108 218 136 111 160 186 151 168 189 169 181 170 261 261 228 216 209 289 305 318 330 332 333 323 343 353 334 4 36 30 24 25 22 21 30 62 120 149 158 173 189 197 202 201 201 201 200 202 205 206 206 205 205 206 208 210 213 215 214 211 211 215 219 221 221 221 221 218 213 210 206 202 197 195 188 182
132 269 282 306 325 358 298 210 126 135 182 176 127 161 210 171 122 117 189 55 74 143 252 247 230 291 335 333 325 351 355 349 352 357 13 6 1 24 31 20 18 20 23 29 27 15 12 142 163 173 184 193 200 203 205 206 207 209 212 214 213 212 210 210 210 211 213 214 214 212 213 216 219 221 222 223 223 220 217 217 215 210 204 199 193 190
165 272 295 318 41 328 345 68 48 44 124 126 177 204 185 103 95 108 147 14 45 195 270 300 196 260 68 187 315 358 12 3 354 356 10 10 18 31 23 13 15 10 13 28 30 21 12 20 147 179 184 190 196 200 206 209 212 216 219 220 221 221 219 217 216 214 214 215 215 215 215 217 220 222 224 225 226 223 219 219 218 214 210 205 201 198
136 270 294 292 190 308 347 54 21 354 58 126 181 182 112 114 169 86 134 148 121 213 282 319 265 236 202 213 221 100 11 347 341 347 15 17 18 26 21 17 15 11 14 24 27 23 19 24 27 63 182 193 195 198 204 209 213 217 221 223 225 226 226 226 225 221 219 218 218 220 221 221 222 223 225 226 226 225 223 222 220 217 215 211 207 205
79 126 283 294 267 293 347 44 239 300 351 35 48 28 38 128 162 158 137 161 171 189 246 310 315 268 233 221 160 151 222 307 346 357 6 1 358 7 16 20 19 20 22 21 24 18 15 29 34 38 51 158 201 208 206 206 211 215 220 223 224 225 225 229 231 228 225 222 221 226 229 227 226 226 227 227 227 226 226 225 223 220 217 214 212 210
48 100 247 295 330 295 282 313 197 189 176 23 27 1 349 82 126 167 75 116 136 151 177 205 292 272 253 221 165 167 208 245 4 11 356 346 352 356 1 12 16 20 19 15 19 16 9 26 39 43 47 57 71 133 201 209 214 215 217 220 221 221 222 226 230 229 227 223 221 226 232 233 231 230 230 229 228 228 228 227 226 223 219 216 213 212
39 120 193 289 334 289 235 248 210 187 180 167 182 195 166 134 132 155 302 320 100 141 169 160 218 264 259 213 202 205 210 263 356 30 12 353 353 353 354 1 2 11 20 12 10 14 12 22 38 46 49 53 56 56 61 91 210 219 221 222 221 221 222 226 228 227 226 225 223 224 230 235 236 233 232 231 230 228 228 228 227 223 220 216 213 212
134 107 136 270 269 237 248 259 158 192 160 133 152 156 134 135 125 139 207 244 149 140 154 132 171 264 264 228 232 259 266 313 5 62 64 17 358 351 347 347 355 8 14 10 12 16 15 19 29 39 42 44 46 47 50 51 48 45 244 234 228 226 229 231 231 228 226 226 226 226 229 235 239 238 234 231 230 228 227 228 227 224 220 215 211 209
82 77 17 291 296 300 304 339 43 42 75 91 28 53 109 143 135 149 177 170 159 177 144 119 234 262 270 270 289 289 272 124 76 73 70 30 0 350 344 344 354 2 5 16 22 17 18 21 23 25 27 28 29 32 36 39 40 42 40 21 261 244 243 240 235 230 225 223 225 228 231 233 233 234 234 232 230 227 226 226 225 223 219 214 210 207
292 292 96 15 337 328 334 351 352 349 38 108 295 333 84 103 98 112 116 84 128 214 157 156 233 247 267 317 338 318 319 101 109 113 109 64 353 328 324 333 341 352 4 12 14 14 20 21 18 17 19 20 20 21 22 24 26 30 34 34 24 334 273 257 245 236 229 224 223 226 231 232 230 230 231 231 229 226 223 223 221 218 214 210 207 205
217 195 141 143 226 240 253 267 263 275 330 81 295 291 294 102 104 113 75 88 215 246 166 169 223 254 279 304 317 322 342 94 125 117 119 122 344 305 310 325 336 355 7 7 8 7 7 10 12 14 15 15 16 17 16 16 17 17 20 24 25 20 358 300 263 246 237 230 226 224 227 231 231 230 230 229 229 226 221 219 216 212 209 207 204 201
130 295 199 175 196 207 209 229 226 169 179 213 215 235 236 120 114 107 98 142 194 198 207 211 198 220 266 268 283 299 290 207 182 94 85 116 7 323 322 330 338 351 357 358 0 356 354 3 9 8 7 9 12 13 13 13 13 11 10 11 13 15 13 360 309 261 244 236 231 227 227 228 231 232 231 229 227 223 217 214 211 207 204 202 200 197
89 334 260 180 216 226 215 240 269 29 235 210 179 207 235 209 121 126 169 205 165 142 254 239 192 196 244 240 244 258 256 240 239 257 268 268 270 292 328 331 334 335 333 339 350 357 1 357 350 350 355 0 4 4 6 7 6 5 4 3 3 3 3 0 348 305 261 245 238 234 232 231 231 231 230 227 223 217 214 213 209 204 200 197 196 195
111 267 246 176 259 266 250 257 267 7 267 241 182 205 222 202 171 181 205 197 156 183 243 226 187 211 236 227 228 233 220 212 227 238 255 280 280 352 1 336 329 324 324 337 343 347 349 339 330 335 340 348 354 356 357 357 357 356 356 355 355 355 354 350 347 336 301 265 249 243 239 235 232 230 228 225 219 215 215 213 208 202 197 194 193 193
127 254 228 184 281 294 282 275 247 199 252 278 247 227 217 207 204 206 218 203 182 217 243 210 197 225 231 215 223 228 207 201 231 267 295 315 318 336 331 311 317 319 318 329 329 325 327 320 317 324 329 336 342 345 346 346 347 347 346 347 348 347 347 345 341 336 323 294 267 255 247 239 234 230 227 224 218 214 213 210 205 200 194 191 189 187
96 257 239 179 285 282 275 284 264 219 214 242 252 242 216 234 238 237 249 227 201 243 255 223 220 247 249 219 215 225 218 191 261 278 279 279 275 269 266 280 304 313 312 316 317 318 320 313 310 315 319 323 329 333 335 335 336 337 336 339 341 341 341 339 336 332 324 310 290 270 254 242 235 229 224 219 215 212 209 204 198 193 188 185 183 181
106 240 323 38 277 261 223 244 263 262 252 252 249 229 214 227 226 218 219 196 189 226 245 230 239 254 245 213 196 199 201 213 242 251 248 245 233 212 221 252 274 291 300 306 308 312 314 312 312 313 312 316 320 323 326 327 328 328 329 331 334 335 336 334 331 328 321 314 304 282 259 246 236 226 219 215 213 210 205 197 190 186 185 183 179 177
156 197 212 148 246 263 183 218 256 305 301 269 241 207 213 221 220 223 230 214 200 202 209 221 239 241 204 171 174 192 210 230 244 243 229 228 224 212 221 237 251 266 277 285 292 298 300 298 301 304 307 312 315 318 322 323 320 319 322 325 326 328 331 329 327 323 318 314 307 288 264 247 236 226 218 216 214 208 201 193 187 185 184 181 177 174
148 195 220 177 208 274 202 203 291 299 262 261 244 214 218 220 219 222 229 229 217 200 189 233 253 220 167 164 174 187 202 221 242 254 241 216 214 232 243 239 238 250 262 269 274 277 282 288 296 301 304 307 311 314 317 316 314 314 316 319 320 321 322 323 321 319 315 311 305 292 270 248 235 226 218 213 209 202 194 187 181 179 179 177 173 170
175 190 226 191 195 245 48 67 77 237 246 269 305 302 265 197 206 217 235 266 272 230 352 1 338 207 145 167 186 181 211 260 302 301 284 250 212 229 251 254 247 246 259 272 273 271 279 286 292 299 304 307 310 312 312 312 312 312 312 313 314 314 313 314 313 312 311 308 302 291 271 249 233 222 212 205 201 194 186 179 174 173 174 174 173 172
175 172 189 189 196 218 104 118 182 242 278 315 336 348 15 34 46 194 258 325 358 263 210 90 264 279 348 288 261 229 309 327 335 302 275 257 230 224 236 248 249 244 250 266 274 277 284 289 290 294 299 304 308 308 309 311 312 310 309 309 309 307 306 306 304 305 306 303 297 286 268 248 231 216 205 199 195 189 180 176 175 176 176 176 175 174
160 146 168 220 217 175 177 215 243 295 308 314 342 0 3 9 53 136 221 296 318 280 157 126 172 258 270 270 283 342 31 21 349 301 278 260 234 225 230 238 246 254 262 271 278 282 286 289 290 292 295 298 301 303 306 309 310 308 307 306 305 302 300 298 295 297 300 298 292 281 263 245 226 211 202 197 192 184 178 176 175 176 176 176 174 172
142 150 171 191 231 136 149 284 305 309 285 268 268 290 279 206 195 170 152 316 324 324 120 136 264 270 267 287 309 27 69 49 316 283 284 280 253 236 240 249 256 265 272 277 282 283 284 286 288 291 292 292 293 299 304 307 306 304 301 300 300 298 295 291 288 289 291 292 288 279 261 240 223 209 201 195 187 181 176 174 173 174 176 176 173 170
42 28 120 138 264 115 137 229 239 220 242 242 250 279 283 195 180 134 74 284 294 312 308 220 286 281 261 263 249 130 117 251 256 255 264 268 259 240 240 253 261 265 270 275 277 277 280 284 285 286 285 283 287 297 304 303 301 297 294 293 293 291 288 285 283 283 286 289 288 279 260 238 222 211 200 190 184 180 176 171 170 170 171 173 172 168
12 10 59 104 257 215 160 215 239 228 239 239 253 280 284 175 148 113 329 258 270 298 278 183 247 269 249 231 197 148 178 231 249 261 257 251 251 242 237 246 255 259 265 271 274 277 279 281 279 276 276 278 285 295 300 299 296 291 287 287 287 283 280 280 281 282 285 287 285 274 256 236 220 209 199 189 182 175 169 164 163 163 164 168 169 166
354 351 12 174 231 218 191 230 270 262 243 249 271 283 299 90 139 172 232 233 244 276 260 198 239 263 242 209 190 186 221 235 247 275 283 288 289 271 258 261 263 264 269 273 278 282 279 275 273 271 273 281 288 294 296 294 289 284 284 284 280 276 277 279 280 282 283 284 280 267 248 230 216 207 199 188 176 166 159 156 155 156 161 167 168 171
349 337 337 38 203 239 194 206 295 295 248 213 256 286 340 57 179 221 234 226 225 247 254 237 244 251 236 225 223 229 249 259 265 275 280 279 277 275 274 276 276 276 278 280 283 283 278 274 272 270 273 281 287 290 292 288 280 277 279 278 274 275 279 279 279 280 280 278 272 257 236 220 210 200 189 177 166 159 154 152 153 155 162 171 177 183
174 279 301 253 219 258 161 167 290 280 240 228 275 336 36 101 221 252 275 265 232 230 243 246 241 234 228 241 249 252 261 272 275 272 268 266 269 274 279 282 284 287 288 288 286 283 278 274 272 271 275 280 284 286 286 279 271 270 272 271 273 277 279 278 277 277 276 271 261 242 223 207 194 180 171 165 159 156 153 154 158 163 169 176 182 185
195 190 257 249 222 171 173 200 216 215 219 225 207 181 197 225 247 263 274 272 254 237 236 243 249 242 230 239 260 267 270 277 282 286 288 288 287 287 286 287 288 289 291 290 289 288 282 273 271 274 277 280 282 282 279 270 264 264 266 269 274 277 276 274 273 272 269 260 243 224 205 189 178 168 161 155 153 154 155 157 165 171 173 174 178 183
213 179 190 225 235 221 215 232 253 259 260 249 205 208 249 274 280 265 241 241 253 252 245 258 277 280 274 274 278 280 280 282 285 290 292 291 292 292 292 292 289 287 288 288 288 288 284 275 274 277 279 280 280 278 275 268 260 259 264 269 273 273 271 270 269 266 259 242 219 198 180 169 162 157 154 152 153 155 157 161 168 170 171 173 177 186
259 194 154 202 269 292 270 260 266 272 276 273 254 253 265 275 279 266 236 232 250 264 264 267 278 285 290 290 287 283 282 282 285 288 287 288 291 290 288 290 290 289 288 287 286 287 285 281 280 279 280 283 282 278 275 271 264 261 266 271 272 271 269 267 264 257 240 213 191 172 158 149 143 143 147 152 155 155 155 157 161 164 170 178 179 180
285 20 128 226 281 304 293 285 287 278 279 288 296 295 290 282 272 253 222 227 249 261 262 263 271 277 280 280 278 277 278 280 283 285 285 285 284 284 282 283 284 284 283 282 283 286 285 282 280 278 279 282 283 282 279 276 273 272 272 272 270 268 264 260 254 238 206 179 166 156 147 141 140 145 152 154 156 157 154 153 157 163 172 177 168 156
275 23 4 246 245 248 267 281 288 286 286 290 290 286 289 293 291 281 263 260 267 271 271 271 275 279 280 278 276 275 279 281 278 277 279 279 276 277 276 273 273 276 279 279 281 282 280 276 274 275 275 278 282 284 283 280 281 281 277 273 269 263 254 246 235 208 174 157 153 149 146 143 146 152 157 159 164 167 166 166 167 165 161 158 151 145
227 307 288 270 277 281 279 282 287 293 295 291 281 265 257 270 286 292 294 296 296 292 288 286 281 276 274 278 280 280 280 280 276 273 274 276 275 275 273 272 272 274 275 277 279 279 275 272 272 273 274 277 281 283 282 282 284 284 278 273 267 253 237 227 210 178 157 150 147 146 145 147 152 157 161 165 168 169 167 166 162 152 141 137 141 146
90 274 268 275 286 275 267 274 282 291 289 284 281 274 262 260 275 283 286 287 285 280 280 282 282 279 273 268 267 267 270 272 271 270 270 271 271 272 272 274 275 274 274 275 277 276 273 272 272 272 274 277 279 280 281 282 285 282 275 270 261 239 218 202 178 158 151 147 145 145 147 151 158 164 168 166 161 156 151 148 146 145 141 138 141 147
190 236 238 231 252 257 261 270 272 270 271 273 273 270 263 259 266 272 274 276 277 275 273 274 279 283 281 270 259 251 253 264 269 271 270 270 270 271 272 274 274 273 274 275 274 274 273 273 272 273 274 275 276 278 280 282 290 294 280 263 242 215 191 171 154 146 145 144 145 149 153 155 160 164 164 160 155 151 147 143 142 143 141 138 139 141